User: anonymous   Login
Location: B
(0.0000°N, 0.0000°E)
Time: 16:30:39
(UTC+02:00)
Language:

Cosmos 1025 Rocket - Orbit

View from above orbital plane
View from above orbital plane
View from above satellite
View from above satellite

Ground track
Ground track

The orbit data is extracted from the following two-line orbital elements,

1 10974U 78067B   15150.14825387  .00000237  00000-0  23731-4 0  9991
2 10974 082.4808 158.4885 0016219 308.6138 051.3626 14.86983803996232
Epoch (UTC): 30 May 2015 03:33:29
Eccentricity: 0.0016219
inclination: 82.4808°
perigee height: 596 km
apogee height: 619 km
right ascension of ascending node: 158.4885°
argument of perigee: 308.6138°
revolutions per day: 14.86983803
mean anomaly at epoch: 51.3626°
orbit number at epoch: 99623

The dashed part of the orbit path shows where the satellite is in the earth's shadow,  

DLR